[[{"header":{"parameterUnit":"m.s-1","parameterCategory":1,"la1":30.2991,"la2":30.254,"lo1":-89.0895,"lo2":-89.0444,"dx":0.0017,"dy":0.0017,"nx":28,"ny":28,"refTime":"2022-11-19T09:00:00:Z","depth":0,"parameterNumber":2,"parameterNumberName":"U-component_of_WINDS"},"data":[0,0,0,0,0,0,0,0,0,0,0,0,0,0,0,0,0,0,0,0,0,0,0,0,0,0,0,0,0,0,0,0,0,0,0,0,0,0,0,0,0,0,0,0,0,0,0,0,0,0,0,0,0,0,0,0,0,0,-2.6995,-2.6996,0,-2.708,-2.7081,-2.7082,-2.7007,-2.7004,-2.7001,-2.6998,-2.7087,-2.7092,-2.7097,0,0,0,0,0,0,0,0,0,0,0,0,0,-2.6767,-2.6772,-2.6995,-2.6996,-2.6997,-2.708,-2.7081,-2.7082,-2.7007,-2.7004,-2.7,-2.6996,-2.7085,-2.7091,-2.7098,0,0,0,0,0,0,0,0,0,0,0,0,0,-2.6861,-2.6773,-2.6995,-2.6969,-2.6968,-2.708,-2.7081,-2.7083,-2.7008,-2.7004,-2.6999,-2.6995,-2.7083,-2.7091,-2.7099,-2.724,0,0,-2.7123,-2.7126,0,0,0,0,0,0,0,0,-2.6856,-2.6869,-2.6972,-2.6971,-2.697,-2.7028,-2.7033,-2.7135,-2.7009,-2.6993,-2.6998,-2.6992,-2.7071,-2.708,-2.7106,-2.7244,-2.7248,-2.7123,-2.7128,-2.7132,-2.7134,0,0,0,0,0,0,0,-2.6849,-2.6865,-2.7028,-2.6974,-2.6972,-2.6954,-2.6962,-2.7052,-2.7057,-2.6994,-2.6989,-2.7,-2.707,-2.7099,-2.7108,-2.7249,-2.7123,-2.713,-2.7135,-2.7138,-2.7506,-2.7511,0,0,0,0,0,0,-2.6845,-2.686,-2.7026,-2.7031,-2.69,-2.6962,-2.6971,-2.7014,-2.7056,-2.7058,-2.7004,-2.6996,-2.7087,-2.7098,-2.711,-2.7278,-2.7132,-2.7139,-2.7143,-2.7501,-2.7507,-2.7513,0,0,0,0,0,0,-2.6841,-2.6861,-2.7022,-2.6944,-2.6963,-2.6971,-2.702,-2.7018,-2.7047,-2.7063,-2.7064,-2.7032,-2.7084,-2.7099,-2.7208,-2.728,-2.7142,-2.715,-2.7495,-2.7503,-2.751,-2.7616,0,0,0,0,0,0,-2.6834,-2.686,-2.6913,-2.6946,-2.6968,-2.7119,-2.7024,-2.7023,-2.7061,-2.7051,-2.709,-2.7092,-2.7082,-2.7197,-2.7216,-2.7289,-2.7156,-2.7489,-2.7499,-2.7508,-2.7606,-2.7626,-2.7643,0,0,0,0,0,-2.6827,-2.694,-2.6917,-2.6937,-2.7035,-2.7123,-2.7136,-2.7121,-2.7067,-2.7121,-2.7131,-2.7091,-2.7269,-2.7208,-2.7229,-2.7306,-2.7484,-2.7496,-2.7507,-2.7597,-2.7622,-2.7643,0,0,0,0,0,0,-2.6917,-2.6944,-2.6918,-2.7046,-2.7083,-2.711,-2.7178,-2.7147,-2.7201,-2.719,-2.717,-2.7179,-2.7294,-2.731,-2.7242,-2.7444,-2.7368,-2.7384,-2.7429,-2.7453,-2.7471,-2.7465,-2.7162,0,0,0,0,0,-2.6952,-2.702,-2.704,-2.7151,-2.7171,-2.7172,-2.7209,-2.7194,-2.7232,-2.7247,-2.7265,-2.7304,-2.7368,-2.7411,-2.7471,-2.7607,-2.7614,-2.767,-2.7688,-2.7704,-2.7718,-2.7791,-2.7815,-2.755,-2.755,-2.755,0,0,-2.7025,-2.7048,-2.7093,-2.717,-2.7197,-2.7268,-2.7185,-2.7265,-2.7318,-2.726,-2.7363,-2.7378,-2.7419,-2.7542,-2.7596,-2.7559,-2.7793,-2.7718,-2.773,-2.7737,-2.7805,-2.783,-2.7852,-2.7558,-2.7556,-2.7555,0,0,-2.7194,-2.7218,-2.7313,-2.7341,-2.7382,-2.7381,-2.7404,-2.7436,-2.7443,-2.7546,-2.7504,-2.7566,-2.7678,-2.7709,-2.7739,-2.7918,-2.7883,-2.7938,-2.8036,-2.8107,-2.8128,-2.8146,-2.821,-2.8234,-2.7952,-2.7953,-2.7953,0,-2.728,-2.7386,-2.7366,-2.7448,-2.7483,-2.7432,-2.7528,-2.7556,-2.7615,-2.7641,-2.7597,-2.7735,-2.7759,-2.7888,-2.7932,-2.7958,-2.7983,-2.7934,-2.8126,-2.8145,-2.8162,-2.8223,-2.8247,-2.7959,-2.7958,-2.7958,-2.7957,0,-2.7489,-2.7563,-2.7634,-2.7692,-2.7734,-2.7823,-2.7817,-2.7862,-2.7843,-2.7847,-2.7952,-2.7979,-2.8043,-2.8073,-2.8055,-2.8199,-2.8174,-2.8129,-2.8053,-2.8194,-2.8251,-2.8274,-2.7968,-2.7966,-2.7964,-2.7962,0,0,-2.772,-2.7763,-2.779,-2.7815,-2.7855,-2.7912,-2.7998,-2.806,-2.81,-2.8142,-2.8213,-2.8308,-2.8266,-2.83,-2.8285,-2.8347,-2.8487,-2.8294,-2.8295,-2.833,-2.8647,-2.8682,-2.8709,-2.8463,-2.8468,-2.8471,-2.8644,0,-2.7891,-2.804,-2.8024,-2.8166,-2.8234,-2.8185,-2.826,-2.8293,-2.8298,-2.8357,-2.8362,-2.843,-2.8369,-2.839,-2.8449,-2.8458,-2.8551,-2.8445,-2.853,-2.8534,-2.8523,-2.8738,-2.8776,-2.8937,-2.8666,-2.867,-2.8672,0,-2.8111,-2.816,-2.8309,-2.8338,-2.8365,-2.8433,-2.8488,-2.8544,-2.858,-2.8579,-2.8617,-2.8591,-2.8677,-2.8597,-2.8715,-2.8644,-2.8677,-2.8687,-2.8693,-2.8701,-2.8613,-2.8754,-2.8988,-2.9013,-2.8707,-2.8704,-2.8702,0,-2.8265,-2.8368,-2.847,-2.8493,-2.8529,-2.8577,-2.8595,-2.8626,-2.8664,-2.8712,-2.8736,-2.8793,-2.8825,-2.887,-2.886,-2.8803,-2.8981,-2.89,-2.8983,-2.8984,-2.9024,-2.9022,-2.9269,-2.9044,-2.9044,-2.9044,-2.9043,0,-2.8459,-2.8552,-2.8539,-2.8603,-2.8705,-2.8685,-2.8787,-2.8798,-2.8826,-2.889,-2.8851,-2.8912,-2.8895,-2.8955,-2.8947,-2.9046,-2.9061,-2.9063,-2.906,-2.9067,-2.9067,-2.909,-2.9079,-2.905,-2.9049,-2.9047,-2.9046,0,-2.8649,-2.8645,-2.8753,-2.8777,-2.8786,-2.886,-2.8881,-2.8941,-2.8942,-2.9023,-2.9041,-2.9044,-2.9112,-2.9106,-2.9184,-2.9178,-2.9301,-2.9284,-2.9289,-2.9286,-2.9369,-2.9361,-2.964,-2.9675,-2.9427,-2.943,-2.9432,0,-2.8774,-2.8844,-2.8876,-2.8916,-2.8936,-2.9001,-2.9039,-2.9021,-2.9062,-2.9107,-2.9161,-2.9226,-2.9277,-2.9389,-2.9398,-2.9456,-2.9441,-2.9535,-2.945,-2.9455,-2.9443,-2.944,-2.9447,-2.9552,-2.9555,-2.9557,-2.9559,0,-2.8995,-2.8989,-2.9045,-2.91,-2.9147,-2.9189,-2.9228,-2.9263,-2.9249,-2.9297,-2.9366,-2.9406,-2.9484,-2.9549,-2.9604,-2.9622,-2.9589,-2.9585,-2.9607,-2.9616,-2.9616,-2.9617,-2.9335,-2.9579,-2.9577,-2.9576,-2.9575,-2.9574,-2.9157,-2.9217,-2.9248,-2.9312,-2.9338,-2.9375,-2.9432,-2.9439,-2.9497,-2.9559,-2.9544,-2.9622,-2.9655,-2.9725,-2.9749,-2.9809,-2.9775,-2.9808,-2.9816,-2.9825,-2.9835,-2.9605,-2.9819,-2.9819,-2.9818,-2.9817,-2.9817,0,-2.9377,-2.9394,-2.9452,-2.9507,-2.9557,-2.952,-2.956,-2.9605,-2.9674,-2.9706,-2.9757,-2.9836,-2.9898,-2.9911,-2.9971,-3.0017,-3.0003,-3.0033,-3.003,-3.0034,-2.9861,-2.9836,-3.0043,-3.0043,-3.0043,-3.0043,-3.0043,-3.0043,-2.9497,-2.9596,-2.9594,-2.9705,-2.9722,-2.9797,-2.9824,-2.9857,-2.9883,-2.9973,-3.0024,-3.0032,-3.0056,-3.0117,-3.0172,-3.0174,-3.0198,-3.0235,-3.0231,-3.0069,-3.0047,-3.0025,-3.0002,-3.024,-3.024,-3.0399,-3.0401,-3.0402]},{"header":{"parameterUnit":"m.s-1","parameterCategory":1,"la1":30.2991,"la2":30.254,"lo1":-89.0895,"lo2":-89.0444,"dx":0.0017,"dy":0.0017,"nx":28,"ny":28,"refTime":"2022-11-19T09:00:00:Z","depth":0,"parameterNumber":3,"parameterNumberName":"V-component_of_WINDS"},"data":[0,0,0,0,0,0,0,0,0,0,0,0,0,0,0,0,0,0,0,0,0,0,0,0,0,0,0,0,0,0,0,0,0,0,0,0,0,0,0,0,0,0,0,0,0,0,0,0,0,0,0,0,0,0,0,0,0,0,-6.1957,-6.1958,0,-6.2054,-6.2055,-6.2057,-6.197,-6.1967,-6.1963,-6.196,-6.2055,-6.206,-6.2066,0,0,0,0,0,0,0,0,0,0,0,0,0,-6.1692,-6.1697,-6.1957,-6.1959,-6.196,-6.2054,-6.2056,-6.2057,-6.1971,-6.1967,-6.1962,-6.1958,-6.2053,-6.206,-6.2067,0,0,0,0,0,0,0,0,0,0,0,0,0,-6.18,-6.1699,-6.1957,-6.1928,-6.1927,-6.2054,-6.2056,-6.2057,-6.1972,-6.1967,-6.1961,-6.1956,-6.2051,-6.2059,-6.2068,-6.2227,0,0,-6.2094,-6.2098,0,0,0,0,0,0,0,0,-6.1794,-6.1809,-6.1931,-6.1931,-6.1929,-6.1995,-6.1996,-6.2114,-6.1973,-6.1955,-6.196,-6.1954,-6.2039,-6.2048,-6.2078,-6.2231,-6.2235,-6.2095,-6.21,-6.2104,-6.2106,0,0,0,0,0,0,0,-6.1786,-6.1805,-6.1995,-6.1933,-6.1932,-6.1909,-6.1918,-6.2018,-6.2025,-6.1956,-6.195,-6.1963,-6.2037,-6.207,-6.2079,-6.2236,-6.2095,-6.2102,-6.2108,-6.2111,-6.2522,-6.2527,0,0,0,0,0,0,-6.1783,-6.1799,-6.1992,-6.1998,-6.1847,-6.1918,-6.1928,-6.1979,-6.2024,-6.2025,-6.1967,-6.1958,-6.2057,-6.2069,-6.2082,-6.2269,-6.2104,-6.2112,-6.2117,-6.2516,-6.2523,-6.2529,0,0,0,0,0,0,-6.1777,-6.1801,-6.1988,-6.1897,-6.1919,-6.1928,-6.1986,-6.1984,-6.2016,-6.2032,-6.2032,-6.2,-6.2054,-6.207,-6.2191,-6.2271,-6.2116,-6.2124,-6.2509,-6.2518,-6.2526,-6.2646,0,0,0,0,0,0,-6.177,-6.1799,-6.1861,-6.1899,-6.1925,-6.2098,-6.1991,-6.1989,-6.2032,-6.2021,-6.2063,-6.2064,-6.2051,-6.2179,-6.22,-6.2281,-6.2131,-6.2502,-6.2513,-6.2523,-6.2635,-6.2658,-6.2677,0,0,0,0,0,-6.1761,-6.1891,-6.1865,-6.1889,-6.2003,-6.2103,-6.2117,-6.21,-6.2039,-6.21,-6.211,-6.2063,-6.226,-6.2192,-6.2215,-6.23,-6.2497,-6.251,-6.2523,-6.2626,-6.2653,-6.2677,0,0,0,0,0,0,-6.1861,-6.1895,-6.1867,-6.2014,-6.2056,-6.2088,-6.2165,-6.213,-6.219,-6.2177,-6.2152,-6.2162,-6.2289,-6.2306,-6.223,-6.2454,-6.2368,-6.2386,-6.2438,-6.2465,-6.2486,-6.2478,-6.2138,0,0,0,0,0,-6.19,-6.198,-6.2005,-6.2132,-6.2155,-6.2157,-6.22,-6.2183,-6.2225,-6.2242,-6.2261,-6.2302,-6.2373,-6.242,-6.2486,-6.2637,-6.2643,-6.2707,-6.2728,-6.2745,-6.2761,-6.2839,-6.2867,-6.2571,-6.2571,-6.2571,0,0,-6.1982,-6.2011,-6.2063,-6.2153,-6.2184,-6.2265,-6.2172,-6.2263,-6.2322,-6.2255,-6.237,-6.2386,-6.243,-6.2566,-6.2627,-6.2584,-6.2844,-6.2761,-6.2775,-6.2781,-6.2855,-6.2883,-6.2908,-6.258,-6.2578,-6.2577,0,0,-6.2172,-6.2203,-6.2311,-6.2344,-6.2392,-6.2392,-6.2418,-6.2455,-6.2463,-6.2579,-6.253,-6.2599,-6.2722,-6.2755,-6.2788,-6.2989,-6.2947,-6.3011,-6.3121,-6.3198,-6.3221,-6.3241,-6.3311,-6.3336,-6.3026,-6.3027,-6.3027,0,-6.2267,-6.239,-6.237,-6.2465,-6.2504,-6.2449,-6.2557,-6.2589,-6.2656,-6.2684,-6.2635,-6.2787,-6.2813,-6.2955,-6.3004,-6.3033,-6.306,-6.3006,-6.3219,-6.324,-6.3258,-6.3324,-6.3351,-6.3034,-6.3033,-6.3032,-6.3032,0,-6.2503,-6.2588,-6.2669,-6.2736,-6.2786,-6.2886,-6.288,-6.2932,-6.2911,-6.2915,-6.3032,-6.3061,-6.3131,-6.3163,-6.3143,-6.3302,-6.3274,-6.3223,-6.3136,-6.3294,-6.3356,-6.3381,-6.3044,-6.3042,-6.304,-6.3038,0,0,-6.2759,-6.2813,-6.2843,-6.2872,-6.2921,-6.2985,-6.3082,-6.3152,-6.3196,-6.3243,-6.3322,-6.3427,-6.3379,-6.3417,-6.34,-6.3468,-6.3622,-6.3408,-6.3408,-6.3445,-6.3796,-6.3833,-6.3863,-6.3595,-6.36,-6.3604,-6.3792,0,-6.2949,-6.3119,-6.3104,-6.3264,-6.3341,-6.3289,-6.3373,-6.341,-6.3417,-6.3481,-6.3487,-6.3561,-6.3495,-6.3516,-6.3581,-6.359,-6.3692,-6.3576,-6.3666,-6.3669,-6.3655,-6.3895,-6.3935,-6.4111,-6.3816,-6.382,-6.3823,0,-6.3194,-6.3251,-6.342,-6.3455,-6.3486,-6.3562,-6.3624,-6.3687,-6.3728,-6.3727,-6.3769,-6.3739,-6.3834,-6.3746,-6.3874,-6.3796,-6.3831,-6.3841,-6.3847,-6.3854,-6.3755,-6.3907,-6.4167,-6.4193,-6.3861,-6.3858,-6.3855,0,-6.3362,-6.3481,-6.3596,-6.3622,-6.3667,-6.3721,-6.3742,-6.3777,-6.3819,-6.3872,-6.3899,-6.3962,-6.3997,-6.4045,-6.4033,-6.397,-6.4164,-6.4075,-6.4164,-6.4164,-6.4206,-6.4203,-6.4474,-6.4232,-6.4232,-6.4231,-6.423,0,-6.3575,-6.368,-6.3672,-6.3743,-6.3857,-6.3838,-6.3951,-6.3964,-6.3996,-6.4067,-6.4025,-6.4092,-6.4072,-6.4138,-6.4128,-6.4235,-6.4251,-6.4252,-6.4248,-6.4255,-6.4255,-6.4277,-6.4263,-6.4238,-6.4236,-6.4235,-6.4234,0,-6.3782,-6.3781,-6.3903,-6.3935,-6.3945,-6.4028,-6.4054,-6.4119,-6.4122,-6.4212,-6.4232,-6.4235,-6.431,-6.4303,-6.4386,-6.438,-6.4511,-6.4493,-6.4498,-6.4493,-6.4582,-6.4573,-6.4876,-6.4914,-6.4649,-6.4651,-6.4653,0,-6.3917,-6.3996,-6.4037,-6.4082,-6.4106,-6.418,-6.4222,-6.4206,-6.4252,-6.4303,-6.4362,-6.4433,-6.4489,-6.461,-6.4618,-6.4681,-6.4664,-6.4765,-6.4673,-6.4677,-6.4663,-6.4658,-6.4664,-6.4783,-6.4786,-6.4789,-6.4791,0,-6.4157,-6.4153,-6.4217,-6.4281,-6.4334,-6.4383,-6.4428,-6.4467,-6.4454,-6.4507,-6.4584,-6.4627,-6.4712,-6.4782,-6.4842,-6.486,-6.4823,-6.482,-6.4843,-6.4851,-6.4849,-6.4849,-6.4546,-6.4813,-6.481,-6.4809,-6.4808,-6.4807,-6.4331,-6.4398,-6.4437,-6.4509,-6.4541,-6.4584,-6.4646,-6.4657,-6.4721,-6.479,-6.4775,-6.4861,-6.4897,-6.4973,-6.4997,-6.5062,-6.5025,-6.506,-6.5068,-6.5077,-6.5086,-6.4841,-6.5073,-6.5072,-6.5072,-6.5071,-6.5071,0,-6.4567,-6.4589,-6.4656,-6.472,-6.4777,-6.4738,-6.4785,-6.4834,-6.4911,-6.4948,-6.5004,-6.509,-6.5158,-6.5172,-6.5236,-6.5285,-6.5269,-6.5302,-6.5297,-6.5302,-6.5117,-6.5089,-6.5313,-6.5313,-6.5313,-6.5313,-6.5313,-6.5313,-6.4697,-6.4807,-6.4807,-6.4932,-6.4953,-6.5038,-6.5067,-6.5105,-6.5135,-6.5234,-6.529,-6.5299,-6.5327,-6.5392,-6.5451,-6.5453,-6.5478,-6.5517,-6.5512,-6.5339,-6.5315,-6.5292,-6.5265,-6.5523,-6.5523,-6.5691,-6.5693,-6.5694]}]]